| time (UTC) | temp C | wind direction | speed KPH | gust KPH | rain 1hr cm | rain 24hr cm | rain mn cm | humidity % | barometer mb |
| 20260906230028 | 23 | 269 | 4.8 | 9.7 | 0.00 | 0.00 | 0.00 | 27 | 1003.2 |
| 20260906224530 | 24 | 131 | 4.8 | 14.5 | 0.00 | 0.00 | 0.00 | 24 | 1003.2 |
| 20260906223030 | 24 | 273 | 3.2 | 9.7 | 0.00 | 0.00 | 0.00 | 24 | 1003.2 |
| 20260906221526 | 24 | 241 | 3.2 | 14.5 | 0.00 | 0.00 | 0.00 | 23 | 1003.1 |
| 20260906220029 | 24 | 165 | 4.8 | 16.1 | 0.00 | 0.00 | 0.00 | 23 | 1003.4 |
| 20260906214524 | 25 | 242 | 4.8 | 19.3 | 0.00 | 0.00 | 0.00 | 24 | 1003.2 |
| 20260906213023 | 25 | 238 | 1.6 | 12.9 | 0.00 | 0.00 | 0.00 | 24 | 1003.3 |
| 20260906211536 | 24 | 238 | 4.8 | 14.5 | 0.00 | 0.00 | 0.00 | 23 | 1003.8 |
| 20260906210038 | 24 | 208 | 8.0 | 17.7 | 0.00 | 0.00 | 0.00 | 22 | 1003.8 |
| 20260906204520 | 25 | 123 | 8.0 | 17.7 | 0.00 | 0.00 | 0.00 | 23 | 1003.8 |
| 20260906203024 | 25 | 248 | 11.3 | 24.1 | 0.00 | 0.00 | 0.00 | 23 | 1003.9 |
| 20260906201535 | 25 | 116 | 8.0 | 17.7 | 0.00 | 0.00 | 0.00 | 22 | 1003.8 |
| 20260906200016 | 25 | 265 | 8.0 | 20.9 | 0.00 | 0.00 | 0.00 | 22 | 1004.0 |
| 20260906194514 | 25 | 244 | 12.9 | 25.7 | 0.00 | 0.00 | 0.00 | 22 | 1004.2 |
| 20260906193020 | 25 | 175 | 11.3 | 22.5 | 0.00 | 0.00 | 0.00 | 22 | 1004.4 |
| 20260906191509 | 24 | 205 | 3.2 | 17.7 | 0.00 | 0.00 | 0.00 | 21 | 1004.7 |
| 20260906190007 | 24 | 187 | 8.0 | 17.7 | 0.00 | 0.00 | 0.00 | 21 | 1005.1 |
| 20260906184505 | 23 | 152 | 9.7 | 25.7 | 0.00 | 0.00 | 0.00 | 20 | 1005.4 |
| 20260906183003 | 23 | 244 | 4.8 | 25.7 | 0.00 | 0.00 | 0.00 | 23 | 1005.5 |
| 20260906181500 | 23 | 220 | 8.0 | 16.1 | 0.00 | 0.00 | 0.00 | 24 | 1005.7 |
| 20260906180122 | 23 | 192 | 3.2 | 14.5 | 0.00 | 0.00 | 0.00 | 27 | 1005.9 |
| 20260906174603 | 23 | 103 | 3.2 | 16.1 | 0.00 | 0.00 | 0.00 | 27 | 1006.3 |
| 20260906173059 | 22 | 250 | 3.2 | 16.1 | 0.00 | 0.00 | 0.00 | 27 | 1006.5 |
| 20260906171552 | 22 | 292 | 3.2 | 12.9 | 0.00 | 0.00 | 0.00 | 30 | 1006.6 |
| 20260906170049 | 21 | 345 | 1.6 | 8.0 | 0.00 | 0.00 | 0.00 | 33 | 1006.9 |
| 20260906164545 | 21 | 36 | 1.6 | 6.4 | 0.00 | 0.00 | 0.00 | 34 | 1007.0 |
| 20260906163040 | 20 | 69 | 3.2 | 8.0 | 0.00 | 0.00 | 0.00 | 37 | 1007.2 |
| 20260906161539 | 19 | 101 | 1.6 | 9.7 | 0.00 | 0.00 | 0.00 | 39 | 1007.2 |
| 20260906160036 | 17 | 276 | 8.0 | 17.7 | 0.00 | 0.00 | 0.00 | 41 | 1007.4 |
| 20260906154533 | 16 | 240 | 1.6 | 6.4 | 0.00 | 0.00 | 0.00 | 52 | 1007.4 |
| 20260906153034 | 15 | 238 | 1.6 | 4.8 | 0.00 | 0.00 | 0.00 | 50 | 1007.5 |
| 20260906151524 | 14 | 238 | 1.6 | 4.8 | 0.00 | 0.00 | 0.00 | 51 | 1007.6 |
| 20260906150023 | 13 | 238 | 1.6 | 3.2 | 0.00 | 0.00 | 0.00 | 48 | 1007.6 |
| 20260906144513 | 13 | 238 | 0.0 | 4.8 | 0.00 | 0.00 | 0.00 | 59 | 1007.7 |
| 20260906143012 | 11 | 238 | 0.0 | 6.4 | 0.00 | 0.00 | 0.00 | 60 | 1007.8 |
| 20260906141505 | 11 | 238 | 0.0 | 3.2 | 0.00 | 0.00 | 0.00 | 64 | 1007.8 |
| 20260906140003 | 9 | 238 | 0.0 | 1.6 | 0.00 | 0.00 | 0.00 | 64 | 1007.8 |
| 20260906134505 | 8 | 238 | 0.0 | 3.2 | 0.00 | 0.00 | 0.00 | 68 | 1007.7 |
| 20260906133104 | 7 | 238 | 1.6 | 4.8 | 0.00 | 0.00 | 0.00 | 65 | 1007.7 |
| 20260906131556 | 8 | 238 | 0.0 | 6.4 | 0.00 | 0.00 | 0.00 | 63 | 1007.4 |
| 20260906130053 | 8 | 238 | 3.2 | 8.0 | 0.00 | 0.00 | 0.00 | 59 | 1007.2 |
| 20260906124653 | 9 | 248 | 1.6 | 6.4 | 0.00 | 0.00 | 0.00 | 53 | 1007.0 |
| 20260906123057 | 8 | 248 | 3.2 | 6.4 | 0.00 | 0.00 | 0.00 | 57 | 1006.9 |
| 20260906121549 | 8 | 248 | 6.4 | 8.0 | 0.00 | 0.00 | 0.00 | 61 | 1006.7 |
| 20260906120051 | 9 | 248 | 3.2 | 8.0 | 0.00 | 0.00 | 0.00 | 60 | 1006.7 |
| 20260906114547 | 8 | 248 | 3.2 | 6.4 | 0.00 | 0.00 | 0.00 | 64 | 1006.7 |
| 20260906113046 | 8 | 248 | 1.6 | 4.8 | 0.00 | 0.00 | 0.00 | 64 | 1006.6 |
| 20260906111547 | 8 | 249 | 1.6 | 4.8 | 0.00 | 0.00 | 0.00 | 66 | 1006.6 |
| 20260906110050 | 8 | 249 | 1.6 | 4.8 | 0.00 | 0.00 | 0.00 | 63 | 1006.4 |
| 20260906104539 | 10 | 249 | 0.0 | 6.4 | 0.00 | 0.00 | 0.00 | 56 | 1006.3 |
| 20260906103055 | 10 | 272 | 1.6 | 3.2 | 0.00 | 0.00 | 0.00 | 60 | 1006.2 |
| 20260906101538 | 10 | 272 | 1.6 | 6.4 | 0.00 | 0.00 | 0.00 | 58 | 1006.1 |
| 20260906100036 | 11 | 272 | 1.6 | 6.4 | 0.00 | 0.00 | 0.00 | 54 | 1005.9 |
| 20260906094533 | 11 | 272 | 1.6 | 4.8 | 0.00 | 0.00 | 0.00 | 55 | 1005.8 |
| 20260906093038 | 11 | 272 | 4.8 | 9.7 | 0.00 | 0.00 | 0.00 | 59 | 1005.7 |
| 20260906091533 | 11 | 306 | 3.2 | 6.4 | 0.00 | 0.00 | 0.00 | 58 | 1005.6 |
| 20260906090051 | 10 | 306 | 0.0 | 6.4 | 0.00 | 0.00 | 0.00 | 61 | 1005.7 |
| 20260906084529 | 10 | 306 | 1.6 | 6.4 | 0.00 | 0.00 | 0.00 | 62 | 1005.5 |
| 20260906083033 | 10 | 307 | 0.0 | 6.4 | 0.00 | 0.00 | 0.00 | 61 | 1005.5 |
| 20260906081624 | 11 | 307 | 1.6 | 4.8 | 0.00 | 0.00 | 0.00 | 56 | 1005.4 |
| 20260906080022 | 11 | 228 | 0.0 | 4.8 | 0.00 | 0.00 | 0.00 | 58 | 1005.2 |
| 20260906074522 | 11 | 228 | 0.0 | 3.2 | 0.00 | 0.00 | 0.00 | 58 | 1005.1 |
| 20260906073018 | 11 | 228 | 6.4 | 8.0 | 0.00 | 0.00 | 0.00 | 59 | 1005.1 |
| 20260906071517 | 12 | 228 | 3.2 | 8.0 | 0.00 | 0.00 | 0.00 | 54 | 1005.2 |
| 20260906070015 | 12 | 228 | 6.4 | 9.7 | 0.00 | 0.00 | 0.00 | 53 | 1005.2 |
| 20260906064514 | 11 | 228 | 4.8 | 6.4 | 0.00 | 0.00 | 0.00 | 56 | 1005.2 |
| 20260906063016 | 12 | 228 | 3.2 | 6.4 | 0.00 | 0.00 | 0.00 | 56 | 1005.3 |
| 20260906061512 | 11 | 228 | 3.2 | 8.0 | 0.00 | 0.00 | 0.00 | 54 | 1005.2 |
| 20260906060008 | 12 | 228 | 1.6 | 8.0 | 0.00 | 0.00 | 0.00 | 53 | 1005.3 |
| 20260906054507 | 12 | 228 | 6.4 | 8.0 | 0.00 | 0.00 | 0.00 | 56 | 1005.4 |
| 20260906053008 | 12 | 229 | 6.4 | 9.7 | 0.00 | 0.00 | 0.00 | 50 | 1005.4 |
| 20260906051508 | 12 | 234 | 6.4 | 11.3 | 0.00 | 0.00 | 0.00 | 54 | 1005.4 |
| 20260906050006 | 12 | 236 | 0.0 | 8.0 | 0.00 | 0.00 | 0.00 | 50 | 1005.5 |
| 20260906044506 | 14 | 236 | 4.8 | 6.4 | 0.00 | 0.00 | 0.00 | 46 | 1005.6 |
| 20260906043005 | 16 | 163 | 4.8 | 9.7 | 0.00 | 0.00 | 0.00 | 36 | 1005.6 |
| 20260906041507 | 16 | 157 | 1.6 | 8.0 | 0.00 | 0.00 | 0.00 | 40 | 1005.6 |
| 20260906040011 | 15 | 152 | 4.8 | 11.3 | 0.00 | 0.00 | 0.00 | 42 | 1005.5 |
| 20260906034504 | 13 | 202 | 4.8 | 8.0 | 0.00 | 0.00 | 0.00 | 50 | 1005.4 |
| 20260906033004 | 13 | 202 | 6.4 | 9.7 | 0.00 | 0.00 | 0.00 | 50 | 1005.4 |
| 20260906031503 | 14 | 197 | 4.8 | 8.0 | 0.00 | 0.00 | 0.00 | 47 | 1005.2 |
| 20260906030003 | 14 | 197 | 3.2 | 6.4 | 0.00 | 0.00 | 0.00 | 47 | 1005.1 |
| 20260906024502 | 15 | 197 | 6.4 | 11.3 | 0.00 | 0.00 | 0.00 | 47 | 1004.9 |
| 20260906023001 | 16 | 197 | 4.8 | 11.3 | 0.00 | 0.00 | 0.00 | 43 | 1004.6 |
| 20260906021502 | 16 | 197 | 4.8 | 11.3 | 0.00 | 0.00 | 0.00 | 40 | 1004.4 |
| 20260906020001 | 16 | 197 | 4.8 | 11.3 | 0.00 | 0.00 | 0.00 | 42 | 1004.3 |
| 20260906014601 | 17 | 198 | 8.0 | 11.3 | 0.00 | 0.00 | 0.00 | 44 | 1004.0 |
| 20260906013107 | 18 | 203 | 6.4 | 11.3 | 0.00 | 0.00 | 0.00 | 40 | 1004.0 |
| 20260906011602 | 20 | 210 | 8.0 | 11.3 | 0.00 | 0.00 | 0.00 | 35 | 1004.0 |
| 20260906010059 | 23 | 190 | 4.8 | 8.0 | 0.00 | 0.00 | 0.00 | 26 | 1004.0 |
| 20260906004600 | 25 | 225 | 4.8 | 12.9 | 0.00 | 0.00 | 0.00 | 20 | 1003.9 |
| 20260906003058 | 26 | 225 | 3.2 | 11.3 | 0.00 | 0.00 | 0.00 | 18 | 1004.0 |
| 20260906001557 | 26 | 244 | 1.6 | 6.4 | 0.00 | 0.00 | 0.00 | 18 | 1003.8 |
| 20260906000107 | 26 | 156 | 3.2 | 12.9 | 0.00 | 0.00 | 0.00 | 19 | 1003.9 |
| 20260905234619 | 26 | 220 | 8.0 | 17.7 | 0.00 | 0.00 | 0.00 | 17 | 1004.0 |
| 20260905233055 | 26 | 262 | 6.4 | 14.5 | 0.00 | 0.00 | 0.00 | 18 | 1004.0 |
| 20260905231559 | 26 | 254 | 3.2 | 14.5 | 0.00 | 0.00 | 0.00 | 18 | 1004.0 |